CW6020 Weather Reports


time (UTC)temp
C
wind
direction
speed
KPH
gust
KPH
rain 1hr
cm
rain 24hr
cm
rain mn
cm
humidity
%
barometer
mb
20260507142021 19 240 6.4 11.3 0.00 0.00 0.00 69 1009.7
20260507141020 19 213 6.4 9.7 0.00 0.00 0.00 70 1009.8
20260507140021 19 228 6.4 12.9 0.00 0.00 0.00 68 1009.9
20260507135021 20 220 8.0 11.3 0.00 0.00 0.00 65 1010.0
20260507134021 20 205 6.4 9.7 0.00 0.00 0.00 63 1010.2
20260507133021 21 210 8.0 12.9 0.00 0.00 0.00 64 1010.1
20260507132021 19 238 8.0 12.9 0.00 0.00 0.00 70 1010.3
20260507131026 19 201 6.4 16.1 0.00 0.00 0.00 71 1010.4
20260507130021 20 225 8.0 11.3 0.00 0.00 0.00 69 1010.5
20260507125021 19 222 6.4 11.3 0.00 0.00 0.00 69 1010.5
20260507124021 20 214 6.4 11.3 0.00 0.00 0.00 68 1010.6
20260507123021 20 229 6.4 12.9 0.00 0.00 0.00 69 1010.6
20260507122021 19 254 6.4 11.3 0.00 0.00 0.00 72 1010.7
20260507121021 19 226 4.8 12.9 0.00 0.00 0.00 72 1010.8
20260507120041 20 223 6.4 12.9 0.00 0.00 0.00 72 1011.0
20260507115041 20 240 6.4 12.9 0.00 0.00 0.00 69 1011.1
20260507114021 20 229 8.0 12.9 0.00 0.00 0.00 68 1011.0
20260507113021 20 230 4.8 9.7 0.00 0.00 0.00 68 1011.2
20260507112021 19 214 6.4 9.7 0.00 0.00 0.00 70 1011.2
20260507111021 19 233 4.8 9.7 0.00 0.00 0.00 69 1011.4
20260507110041 19 202 4.8 11.3 0.00 0.00 0.00 68 1011.4
20260507105020 19 253 6.4 9.7 0.00 0.00 0.00 68 1011.4
20260507104021 19 216 4.8 9.7 0.00 0.00 0.00 68 1011.5
20260507103021 19 245 4.8 11.3 0.00 0.00 0.00 68 1011.5
20260507102021 18 173 6.4 12.9 0.00 0.00 0.00 70 1011.5
20260507101021 18 182 4.8 9.7 0.00 0.00 0.00 71 1011.5
20260507100021 18 152 3.2 8.0 0.00 0.00 0.00 74 1011.6
20260507095100 18 246 3.2 8.0 0.00 0.00 0.00 74 1011.7
20260507094021 18 197 3.2 9.7 0.00 0.00 0.00 76 1011.7
20260507093020 18 295 4.8 16.1 0.00 0.00 0.00 74 1011.8
20260507092020 18 197 4.8 8.0 0.00 0.00 0.00 73 1011.7
20260507091020 18 263 3.2 9.7 0.00 0.00 0.00 76 1011.8
20260507090021 17 294 8.0 16.1 0.00 0.00 0.00 76 1011.8
20260507085042 17 330 6.4 14.5 0.00 0.00 0.00 75 1011.9
20260507084041 17 318 6.4 16.1 0.00 0.00 0.00 77 1011.8
20260507083022 17 329 8.0 20.9 0.00 0.00 0.00 77 1011.7
20260507082021 17 313 4.8 17.7 0.00 0.00 0.00 78 1011.5
20260507081021 17 337 9.7 20.9 0.00 0.00 0.00 79 1011.4
20260507080041 17 314 8.0 19.3 0.00 0.00 0.00 77 1011.4
20260507075021 17 312 4.8 19.3 0.00 0.00 0.00 78 1011.4
20260507074021 17 308 6.4 20.9 0.00 0.00 0.00 79 1011.3
20260507073021 16 319 8.0 19.3 0.00 0.00 0.00 79 1011.1
20260507072101 16 332 8.0 19.3 0.00 0.00 0.00 80 1011.2
20260507071021 16 335 6.4 16.1 0.00 0.00 0.00 82 1011.2
20260507070021 15 335 6.4 16.1 0.00 0.00 0.00 83 1011.3
20260507065021 15 360 6.4 12.9 0.00 0.00 0.00 84 1011.4
20260507064021 15 346 9.7 16.1 0.00 0.00 0.00 84 1011.3
20260507063021 15 346 6.4 14.5 0.00 0.00 0.00 84 1011.3
20260507062021 15 2 4.8 14.5 0.00 0.00 0.00 85 1011.2
20260507061020 15 345 6.4 16.1 0.00 0.00 0.00 85 1011.2
20260507060021 15 349 8.0 16.1 0.00 0.00 0.00 85 1011.2
20260507055020 15 342 8.0 14.5 0.00 0.00 0.00 85 1010.9
20260507054020 15 345 4.8 16.1 0.00 0.00 0.00 86 1011.0
20260507053100 15 345 8.0 14.5 0.00 0.00 0.00 86 1010.8
20260507052020 15 347 8.0 17.7 0.00 0.00 0.00 86 1010.7
20260507051020 15 345 9.7 16.1 0.00 0.00 0.00 86 1010.7
20260507050021 15 330 6.4 17.7 0.00 0.00 0.00 86 1010.7
20260507045020 15 337 9.7 20.9 0.00 0.00 0.00 86 1010.5
20260507044020 15 345 11.3 20.9 0.00 0.00 0.00 86 1010.5
20260507043020 15 344 12.9 22.5 0.00 0.00 0.00 86 1010.5
20260507042020 15 348 9.7 19.3 0.00 0.00 0.00 85 1010.5
20260507041021 15 349 12.9 24.1 0.00 0.00 0.00 85 1010.5
20260507040021 15 346 14.5 22.5 0.00 0.00 0.00 85 1010.4
20260507035021 15 345 12.9 22.5 0.00 0.00 0.00 85 1010.5
20260507034101 15 342 9.7 20.9 0.00 0.00 0.00 85 1010.6
20260507033021 15 346 9.7 17.7 0.00 0.00 0.00 85 1010.7
20260507032041 15 341 8.0 14.5 0.00 0.00 0.00 85 1010.7
20260507031021 15 331 8.0 16.1 0.00 0.00 0.00 84 1010.8
20260507030021 15 348 9.7 17.7 0.00 0.00 0.00 84 1010.9
20260507025100 15 352 8.0 16.1 0.00 0.00 0.00 85 1010.9
20260507024021 15 349 6.4 17.7 0.00 0.00 0.00 84 1011.1
20260507023020 15 340 9.7 17.7 0.00 0.00 0.00 84 1010.9
20260507022021 15 346 6.4 11.3 0.00 0.00 0.00 85 1010.9
20260507021020 15 336 3.2 12.9 0.00 0.00 0.00 84 1010.9
20260507020021 15 343 9.7 16.1 0.00 0.00 0.00 84 1010.9
20260507015021 15 347 6.4 14.5 0.00 0.00 0.00 84 1010.9
20260507014021 15 351 9.7 19.3 0.00 0.00 0.00 84 1010.8
20260507013021 13 346 8.0 12.9 0.00 0.00 0.00 89 1011.0
20260507012021 13 290 1.6 8.0 0.00 0.00 0.00 90 1010.9
20260507011021 13 296 3.2 4.8 0.00 0.00 0.00 89 1011.1
20260507010041 13 118 1.6 3.2 0.00 0.00 0.00 89 1011.1
20260507005021 13 294 1.6 3.2 0.00 0.00 0.00 88 1011.0
20260507004021 13 315 0.0 4.8 0.00 0.00 0.00 89 1011.0
20260507003021 13 86 0.0 3.2 0.00 0.00 0.00 89 1011.2
20260507002021 13 322 1.6 4.8 0.00 0.00 0.00 89 1011.1
20260507001021 12 127 0.0 1.6 0.00 0.00 0.00 88 1011.3
20260507000041 12 280 0.0 3.2 0.00 0.00 0.00 88 1011.4
20260506235021 13 132 1.6 3.2 0.00 0.00 0.00 88 1011.5
20260506234041 13 239 0.0 1.6 0.00 0.00 0.00 88 1011.6
20260506233021 13 337 0.0 1.6 0.00 0.00 0.00 89 1011.7
20260506232041 12 68 1.6 3.2 0.00 0.00 0.00 88 1011.7
20260506231021 12 296 0.0 3.2 0.00 0.00 0.00 89 1011.6
20260506230020 12 0.0 1.6 0.00 0.00 0.00 88 1011.7
20260506225021 12 132 0.0 1.6 0.00 0.00 0.00 88 1011.7
20260506224021 12 0.0 1.6 0.00 0.00 0.00 89 1011.7
20260506223020 12 133 0.0 3.2 0.00 0.00 0.00 89 1011.9
20260506222020 12 0.0 0.0 0.00 0.00 0.00 87 1011.7
20260506221041 12 338 0.0 1.6 0.00 0.00 0.00 87 1011.9
20260506220020 12 0.0 1.6 0.00 0.00 0.00 87 1012.0
20260506215021 12 0.0 0.0 0.00 0.00 0.00 87 1011.9
20260506214021 12 0.0 1.6 0.00 0.00 0.00 86 1011.9
20260506213020 12 0.0 1.6 0.00 0.00 0.00 86 1011.8
20260506212040 13 0.0 0.0 0.00 0.00 0.00 86 1011.7
20260506211020 12 0.0 1.6 0.00 0.00 0.00 85 1011.7
20260506210021 13 174 0.0 3.2 0.00 0.00 0.00 84 1011.6
20260506205021 13 289 0.0 3.2 0.00 0.00 0.00 85 1011.4
20260506204021 13 20 0.0 1.6 0.00 0.00 0.00 84 1011.3
20260506203041 13 176 0.0 1.6 0.00 0.00 0.00 82 1011.2
20260506202021 14 217 0.0 3.2 0.00 0.00 0.00 82 1011.1
20260506201021 13 0.0 3.2 0.00 0.00 0.00 81 1011.2
20260506200022 14 0.0 1.6 0.00 0.00 0.00 79 1010.9
20260506195041 15 0.0 1.6 0.00 0.00 0.00 78 1010.8
20260506194021 15 101 0.0 3.2 0.00 0.00 0.00 77 1010.7
20260506193021 15 19 0.0 3.2 0.00 0.00 0.00 76 1010.7
20260506192021 15 145 0.0 3.2 0.00 0.00 0.00 75 1010.6
20260506191021 16 0.0 3.2 0.00 0.00 0.00 75 1010.6
20260506190021 16 156 0.0 3.2 0.00 0.00 0.00 74 1010.7
20260506185021 16 0.0 1.6 0.00 0.00 0.00 72 1010.7
20260506184021 16 210 0.0 3.2 0.00 0.00 0.00 71 1010.7
20260506183021 16 102 1.6 3.2 0.00 0.00 0.00 70 1010.5
20260506182021 17 151 1.6 4.8 0.00 0.00 0.00 69 1010.5
20260506181041 17 189 1.6 3.2 0.00 0.00 0.00 68 1010.6
20260506180021 17 161 1.6 6.4 0.00 0.00 0.00 67 1010.5
20260506175021 17 282 3.2 4.8 0.00 0.00 0.00 66 1010.4
20260506174101 18 307 4.8 8.0 0.00 0.00 0.00 64 1010.3
20260506173021 17 233 1.6 4.8 0.00 0.00 0.00 66 1010.3
20260506172021 18 179 3.2 6.4 0.00 0.00 0.00 63 1010.3
20260506171041 18 188 3.2 8.0 0.00 0.00 0.00 64 1010.4
20260506170021 17 236 1.6 4.8 0.00 0.00 0.00 65 1010.5
20260506165021 18 234 3.2 4.8 0.00 0.00 0.00 64 1010.5
20260506164021 18 273 6.4 9.7 0.00 0.00 0.00 64 1010.5
20260506163021 18 225 4.8 9.7 0.00 0.00 0.00 65 1010.5
20260506162021 20 263 3.2 11.3 0.00 0.00 0.00 61 1010.5
20260506161041 20 247 3.2 8.0 0.00 0.00 0.00 61 1010.4
20260506160021 21 260 4.8 9.7 0.00 0.00 0.00 59 1010.3
20260506155021 20 282 4.8 11.3 0.00 0.00 0.00 62 1010.4
20260506154020 20 213 4.8 8.0 0.00 0.00 0.00 63 1010.4
20260506153021 20 232 4.8 12.9 0.00 0.00 0.00 64 1010.4
20260506152021 19 265 4.8 11.3 0.00 0.00 0.00 64 1010.4
20260506151020 18 264 4.8 8.0 0.00 0.00 0.00 65 1010.4
20260506150021 17 237 3.2 8.0 0.00 0.00 0.00 65 1010.4
20260506145021 18 265 4.8 11.3 0.00 0.00 0.00 64 1010.7
20260506144021 17 265 4.8 14.5 0.00 0.00 0.00 66 1010.4
20260506143020 17 244 4.8 9.7 0.00 0.00 0.00 66 1010.8